Location: Maccacari
(45.1333°N, 11.1333°E)
Time: 09:09:00
(UTC+00:00)

Courier 1B - Visible Passes

Search period start: 24 January 2021 00:00
Search period end: 03 February 2021 00:00
Orbit: 962 x 1209 km, 28.3° (Epoch: 23 January)

Date Brightness Start Highest point End Pass type
(mag) Time Alt. Az. Time Alt. Az. Time Alt. Az.
31 Jan 9.9 19:38:10 10° SSW 19:39:15 12° SSW 19:39:15 12° SSW visible
01 Feb 9.6 18:45:11 10° SSW 18:48:38 14° SSE 18:48:58 14° SSE visible
02 Feb 9.7 17:52:44 10° S 17:55:05 12° SSE 17:57:25 10° SE visible
02 Feb 9.7 19:43:09 10° SW 19:45:33 16° SSW 19:45:33 16° SSW visible
